This demonstration page uses our WeatherBlox Daily Observations layout. Learn more.

Hourly Observations for January 28, 2018

Temp ( °F °C ) Dew Point ( °F °C ) Humidity (%) Winds ( mph kmh ) Pressure ( in mb ) Visibility ( mi km ) Precip ( " mm )
12:15 am 00:15 Cloudy 33 0.5 22 -5.3 65 65 SW 8 13 30.36 1028 10 16.0934 0 0
12:35 am 00:35 Cloudy 33 0.5 22 -5.4 65 65 SW 8 13 30.36 1028 10 16.0934 0 0
12:55 am 00:55 Mostly Cloudy 32 0.1 22 -5.5 66 66 SW 6 9 30.36 1028 10 16.0934 0 0
1:15 am 01:15 Partly Cloudy 33 0.5 21 -6 62 62 WSW 7 11 30.36 1028 10 16.0934 0 0
1:35 am 01:35 Mostly Cloudy 33 0.7 22 -5.6 63 63 W 6 9 30.36 1028 10 16.0934 0 0
1:55 am 01:55 Cloudy 31 -0.5 24 -4.6 74 74 Calm 30.36 1028 10 16.0934 0 0
2:15 am 02:15 Cloudy 33 0.6 24 -4.6 68 68 N 7 11 30.39 1029 10 16.0934 0 0
2:35 am 02:35 Cloudy 30 -1 24 -4.3 79 79 NNE 10 17 30.42 1030 10 16.0934 0 0
2:55 am 02:55 Cloudy 29 -1.9 24 -4.3 84 84 NNE 9 15 30.42 1030 10 16.0934 0 0
3:15 am 03:15 Mostly Cloudy 27 -2.6 24 -4.2 89 89 NE 10 17 30.42 1030 10 16.0934 0 0
3:35 am 03:35 Partly Cloudy 25 -3.7 23 -5 91 91 NE 7 11 30.42 1030 10 16.0934 0 0
3:55 am 03:55 Clear 24 -4.2 23 -5 94 94 NNE 10 17 30.45 1031 10 16.0934 0 0
4:15 am 04:15 Clear 24 -4.7 21 -6.2 89 89 NNE 6 9 30.45 1031 10 16.0934 0 0
4:35 am 04:35 Partly Cloudy 23 -5.2 21 -6.2 93 93 NNE 8 13 30.45 1031 10 16.0934 0 0
4:55 am 04:55 Mostly Cloudy 23 -5.2 21 -6.2 93 93 NNE 9 15 30.45 1031 10 16.0934 0 0
5:15 am 05:15 Mostly Cloudy 23 -5.2 21 -6 94 94 NNE 8 13 30.45 1031 10 16.0934 0 0
5:35 am 05:35 Cloudy 23 -5.2 21 -6.3 92 92 NE 10 17 30.48 1032 10 16.0934 0 0
5:55 am 05:55 Cloudy 23 -5.2 19 -7 87 87 NNE 13 20 30.48 1032 10 16.0934 0 0
6:15 am 06:15 Cloudy 22 -5.5 19 -7.2 88 88 NNE 12 19 30.48 1032 10 16.0934 0 0
6:35 am 06:35 Mostly Cloudy 22 -5.7 19 -7.1 90 90 NE 14 22 30.48 1032 10 16.0934 0 0
6:55 am 06:55 Cloudy 22 -5.5 20 -6.6 92 92 NE 12 19 30.48 1032 10 16.0934 0 0
7:15 am 07:15 Cloudy 22 -5.5 20 -6.5 93 93 NNE 12 19 30.48 1032 10 16.0934 0 0
7:35 am 07:35 Cloudy 22 -5.5 21 -6.3 94 94 NE 12 19 30.48 1032 10 16.0934 0 0
7:55 am 07:55 Cloudy 22 -5.5 20 -6.5 93 93 NNE 12 19 30.48 1032 10 16.0934 0 0
8:15 am 08:15 Cloudy 22 -5.6 20 -6.5 93 93 NE 13 20 30.48 1032 10 16.0934 0 0
8:35 am 08:35 Cloudy 22 -5.5 21 -6.2 95 95 NE 12 19 30.48 1032 10 16.0934 0 0
8:55 am 08:55 Cloudy 21 -6 19 -7 93 93 NE 10 17 30.5 1033 10 16.0934 0 0
9:15 am 09:15 Cloudy 21 -6 19 -7.1 92 92 ENE 12 19 30.5 1033 10 16.0934 0 0
9:35 am 09:35 Cloudy 21 -5.9 19 -7.2 91 91 NE 12 19 30.5 1033 10 16.0934 0 0
9:55 am 09:55 Mostly Cloudy 21 -6 18 -7.7 88 88 NE 10 17 30.5 1033 10 16.0934 0 0
10:15 am 10:15 Partly Cloudy 22 -5.5 18 -7.6 85 85 NNE 10 17 30.53 1034 10 16.0934 0 0
10:35 am 10:35 Partly Cloudy 22 -5.7 17 -8.3 82 82 NE 12 19 30.53 1034 10 16.0934 0 0
10:55 am 10:55 Sunny 23 -4.8 17 -8.1 78 78 NNE 12 19 30.53 1034 10 16.0934 0 0
11:15 am 11:15 Sunny 23 -4.9 17 -8.4 77 77 NNE 12 19 30.53 1034 10 16.0934 0 0
11:35 am 11:35 Partly Cloudy 25 -3.9 17 -8.4 71 71 NNE 13 20 30.56 1035 10 16.0934 0 0
11:55 am 11:55 Partly Cloudy 23 -4.9 16 -8.9 74 74 NE 14 22 30.53 1034 10 16.0934 0 0
12:15 pm 12:15 Sunny 23 -5 16 -9 74 74 NE 10 17 30.53 1034 10 16.0934 0 0
12:35 pm 12:35 Sunny 24 -4.2 16 -8.9 70 70 ENE 10 17 30.53 1034 10 16.0934 0 0
12:55 pm 12:55 Sunny 25 -3.8 16 -9.1 67 67 NE 10 17 30.53 1034 10 16.0934 0 0
1:15 pm 13:15 Sunny 26 -3.4 17 -8.6 68 68 NNE 12 19 30.56 1035 10 16.0934 0 0
1:35 pm 13:35 Sunny 26 -3.4 16 -8.9 66 66 N 12 19 30.56 1035 10 16.0934 0 0
1:55 pm 13:55 Sunny 25 -3.7 16 -9 67 67 N 14 22 30.56 1035 10 16.0934 0 0
2:15 pm 14:15 Sunny 26 -3.3 16 -8.7 67 67 NNE 13 20 30.56 1035 10 16.0934 0 0
2:35 pm 14:35 Sunny 25 -3.7 16 -9 67 67 NNE 12 19 30.53 1034 10 16.0934 0 0
2:55 pm 14:55 Sunny 26 -3.1 16 -8.7 66 66 NE 9 15 30.5 1033 10 16.0934 0 0
3:15 pm 15:15 Sunny 26 -3.1 17 -8.5 67 67 N 12 19 30.56 1035 10 16.0934 0 0
3:35 pm 15:35 Partly Cloudy 27 -2.8 16 -8.7 64 64 N 9 15 30.53 1034 10 16.0934 0 0
3:55 pm 15:55 Sunny 27 -2.6 17 -8.4 65 65 NNE 12 19 30.53 1034 10 16.0934 0 0
4:15 pm 16:15 Sunny 26 -3.5 17 -8.3 70 70 N 8 13 30.59 1036 10 16.0934 0 0
4:35 pm 16:35 Sunny 26 -3.4 17 -8.2 70 70 N 14 22 30.59 1036 10 16.0934 0 0
4:55 pm 16:55 Sunny 25 -3.9 17 -8.5 71 71 N 12 19 30.59 1036 10 16.0934 0 0
5:15 pm 17:15 Sunny 24 -4.2 17 -8.5 72 72 N 12 19 30.59 1036 10 16.0934 0 0
5:35 pm 17:35 Sunny 24 -4.6 17 -8.5 74 74 NNE 12 19 30.62 1037 10 16.0934 0 0
5:55 pm 17:55 Clear 23 -5.1 17 -8.5 77 77 N 8 13 30.62 1037 10 16.0934 0 0
6:15 pm 18:15 Clear 22 -5.6 17 -8.5 80 80 N 6 9 30.65 1038 10 16.0934 0 0
6:35 pm 18:35 Partly Cloudy 21 -6.2 17 -8.5 84 84 NNE 7 11 30.65 1038 10 16.0934 0 0
6:55 pm 18:55 Mostly Cloudy 21 -6.2 17 -8.3 85 85 NNE 6 9 30.65 1038 10 16.0934 0 0
7:15 pm 19:15 Cloudy 22 -5.4 18 -7.8 83 83 NNE 13 20 30.68 1039 10 16.0934 0 0
7:35 pm 19:35 Cloudy 22 -5.5 17 -8.3 81 81 NNE 13 20 30.68 1039 10 16.0934 0 0
7:55 pm 19:55 Partly Cloudy 21 -6.2 16 -8.7 83 83 N 8 13 30.68 1039 10 16.0934 0 0
8:15 pm 20:15 Clear 20 -6.5 16 -8.7 85 85 N 7 11 30.68 1039 10 16.0934 0 0
8:35 pm 20:35 Clear 19 -7 16 -9 86 86 N 8 13 30.71 1040 10 16.0934 0 0
8:55 pm 20:55 Clear 19 -7.5 15 -9.2 88 88 NNE 8 13 30.68 1039 10 16.0934 0 0
9:15 pm 21:15 Clear 19 -7.5 15 -9.2 88 88 NNE 8 13 30.68 1039 10 16.0934 0 0
9:35 pm 21:35 Clear 18 -7.7 15 -9.5 87 87 N 7 11 30.74 1041 10 16.0934 0 0
9:55 pm 21:55 Clear 17 -8.3 14 -9.8 89 89 N 6 9 30.74 1041 10 16.0934 0 0
10:15 pm 22:15 Clear 16 -9 14 -10 93 93 N 6 9 30.74 1041 10 16.0934 0 0
10:35 pm 22:35 Clear 16 -9 14 -10 93 93 N 7 11 30.74 1041 10 16.0934 0 0
10:55 pm 22:55 Clear 15 -9.5 13 -10.5 93 93 N 7 11 30.74 1041 10 16.0934 0 0
11:15 pm 23:15 Clear 14 -10 12 -11 92 92 NNE 7 11 30.74 1041 10 16.0934 0 0
11:35 pm 23:35 Clear 15 -9.6 13 -10.5 93 93 Calm 30.74 1041 10 16.0934 0 0
11:55 pm 23:55 Clear 15 -9.7 13 -10.8 92 92 NNW 3 6 30.77 1042 10 16.0934 0 0

Powered by AerisWeather